sat.trackr.live / text

‹ back to catalog

FUNCUBE-1 (AO-73)

NORAD 39444 · 2013-066AE

PAYLOAD ACTIVE UNKNOWN

§ Identity

Operator
Country
UK
Launch date
2013-11-21
Launch site
DLS
Launch vehicle
Mass (kg)
RCS (m²)
0.06

Purposes: comms, tech_demo

External: N2YO · Heavens-Above · Gunter

§ Orbital elements

Epoch: 2026-05-24T22:03:40.646880Z

Period
95.42 min
Inclination
97.8266°
Eccentricity
0.0034518
Mean motion
15.09149207 rev/d
Perigee alt
514.9 km
Apogee alt
562.7 km
Semi-major
6,916.9 km
B*
4.1119e-4
RAAN
115.8865°
Arg perigee
283.8693°
Mean anomaly
75.8695°
Rev number
67,615

§ Raw data

FUNCUBE-1 (AO-73)1 39444U 13066AE  26144.91922045  .00006550  00000+0  41119-3 0  99932 39444  97.8266 115.8865 0034518 283.8693  75.8695 15.09149207676151

JSON: /api/v1/satellites/39444 · /tle

For live sub-satellite position, see the globe view (requires WebGL).

§ Visibility from observer

Set your observer location to see the next 7 days of passes ≥ 10°. The values pass through the URL so the page stays shareable.

No JS? Fill the form by hand. The geolocation button needs JavaScript.

§ Radio — SatNOGS DB

ModeDescriptionDownlinkUplink
BPSK BPSK Telemetry 145.935 MHz
CW CW Beacon 145.815 MHz
USB Mode U/V Linear 145.950 MHz–145.970 MHz 435.130 MHz–435.150 MHz

3 transmitters · refreshed weekly from db.satnogs.org